{"data":{"norad_id":48639,"epoch":"2026-05-25T04:47:45.408768Z","epoch_age_seconds":64437,"freshness":"FRESH","line1":"1 48639U 21044B   26145.19983112 -.00000158  00000+0  66744-5 0  9999","line2":"2 48639  53.1577 117.9926 0001179  80.8961 279.2174 15.31691484275542","mean_motion":15.31691484,"eccentricity":0.0001179,"inclination_deg":53.1577,"raan_deg":117.9926,"arg_perigee_deg":80.8961,"mean_anomaly_deg":279.2174,"bstar":6.6744e-6,"rev_number":27554,"period_min":94.013710661853,"perigee_km":469.9578955054,"apogee_km":471.57286668686,"semimajor_km":6848.9023810961,"source":"CELESTRAK","updated_at":"2026-05-25T13:38:16.752939Z"}}